CW6778 Weather Reports


time (UTC)temp
C
wind
direction
speed
KPH
gust
KPH
rain 1hr
cm
rain 24hr
cm
rain mn
cm
humidity
%
barometer
mb
20260504045528 7 268 3.2 9.7 0.00 0.00 0.00 60 1013.0
20260504045028 7 360 3.2 8.0 0.00 0.00 0.00 60 1013.0
20260504044546 7 360 3.2 9.7 0.00 0.00 0.00 59 1013.1
20260504044028 7 360 3.2 9.7 0.00 0.00 0.00 59 1013.0
20260504043535 7 360 3.2 9.7 0.00 0.00 0.00 59 1012.9
20260504043049 7 360 3.2 12.9 0.00 0.00 0.00 58 1012.9
20260504042528 7 360 4.8 14.5 0.00 0.00 0.00 58 1013.0
20260504042028 7 360 6.4 14.5 0.00 0.00 0.00 58 1013.0
20260504041547 7 360 6.4 14.5 0.00 0.00 0.00 59 1012.9
20260504041029 7 251 6.4 14.5 0.00 0.00 0.00 59 1012.9
20260504040529 7 242 8.0 14.5 0.00 0.00 0.00 58 1013.1
20260504040046 7 243 6.4 12.9 0.00 0.00 0.00 58 1013.0
20260504035532 7 253 4.8 12.9 0.00 0.00 0.00 58 1012.9
20260504035029 7 251 6.4 14.5 0.00 0.00 0.00 57 1012.8
20260504034553 7 252 6.4 14.5 0.00 0.00 0.00 57 1012.8
20260504034028 7 360 6.4 17.7 0.00 0.00 0.00 57 1012.8
20260504033528 7 254 8.0 17.7 0.00 0.00 0.00 57 1012.9
20260504033051 7 360 4.8 16.1 0.00 0.00 0.00 57 1012.9
20260504032610 7 263 4.8 16.1 0.00 0.00 0.00 58 1012.9
20260504032029 7 360 6.4 14.5 0.00 0.00 0.00 58 1012.9
20260504031600 7 360 3.2 9.7 0.00 0.00 0.00 58 1012.8
20260504031028 7 360 4.8 11.3 0.00 0.00 0.00 58 1012.8
20260504030528 7 360 4.8 11.3 0.00 0.00 0.00 58 1012.8
20260504030109 7 360 3.2 11.3 0.00 0.00 0.00 58 1012.8
20260504025528 7 267 3.2 12.9 0.00 0.00 0.00 58 1012.8
20260504025028 7 360 4.8 12.9 0.00 0.00 0.00 57 1012.8
20260504024550 7 360 3.2 9.7 0.00 0.00 0.00 57 1012.9
20260504024026 7 360 3.2 9.7 0.00 0.00 0.00 57 1013.0
20260504023530 7 254 3.2 8.0 0.00 0.00 0.00 57 1013.0
20260504023041 7 255 3.2 8.0 0.00 0.00 0.00 56 1013.0
20260504022532 8 360 3.2 8.0 0.00 0.00 0.00 56 1013.0
20260504022030 8 254 3.2 11.3 0.00 0.00 0.00 56 1013.0
20260504021548 8 254 4.8 11.3 0.00 0.00 0.00 55 1012.8
20260504021028 8 253 6.4 11.3 0.00 0.00 0.00 55 1013.0
20260504020529 8 252 4.8 11.3 0.00 0.00 0.00 55 1012.9
20260504020048 8 253 6.4 11.3 0.00 0.00 0.00 55 1012.9
20260504015527 8 254 4.8 11.3 0.00 0.00 0.00 55 1012.9
20260504015035 8 253 4.8 11.3 0.00 0.00 0.00 54 1012.9
20260504014549 8 253 4.8 11.3 0.00 0.00 0.00 54 1012.9
20260504014030 8 254 4.8 11.3 0.00 0.00 0.00 55 1012.8
20260504013527 8 254 4.8 11.3 0.00 0.00 0.00 54 1012.9
20260504013050 8 254 4.8 9.7 0.00 0.00 0.00 54 1012.8
20260504012527 8 255 3.2 8.0 0.00 0.00 0.00 53 1012.8
20260504012027 9 255 3.2 6.4 0.00 0.00 0.00 51 1012.8
20260504011545 9 360 1.6 6.4 0.00 0.00 0.00 50 1012.7
20260504011032 10 360 3.2 6.4 0.00 0.00 0.00 50 1012.7
20260504010533 10 360 1.6 8.0 0.00 0.00 0.00 49 1012.7
20260504010043 10 360 3.2 9.7 0.00 0.00 0.00 48 1012.8
20260504005530 10 360 3.2 9.7 0.00 0.00 0.00 47 1012.7
20260504005029 10 360 4.8 9.7 0.00 0.00 0.00 46 1012.8
20260504004541 10 360 3.2 11.3 0.00 0.00 0.00 46 1012.7
20260504004028 11 263 4.8 12.9 0.00 0.00 0.00 45 1012.7
20260504003530 11 360 6.4 14.5 0.00 0.00 0.00 44 1012.7
20260504003047 11 360 3.2 14.5 0.00 0.00 0.00 44 1012.5
20260504002531 11 360 1.6 9.7 0.00 0.00 0.00 44 1012.4
20260504002030 11 360 3.2 14.5 0.00 0.00 0.00 43 1012.4
20260504001550 11 360 6.4 19.3 0.00 0.00 0.00 43 1012.4
20260504001030 12 255 9.7 19.3 0.00 0.00 0.00 42 1012.4
20260504000532 12 283 6.4 22.5 0.00 0.00 0.00 42 1012.4
20260504000125 12 360 9.7 22.5 0.00 0.00 0.00 42 1012.3
20260503235530 12 266 9.7 19.3 0.00 0.00 0.00 42 1012.3
20260503235032 12 360 12.9 19.3 0.00 0.00 0.00 41 1012.2
20260503234552 12 360 6.4 17.7 0.00 0.00 0.00 41 1012.2
20260503234031 12 279 3.2 22.5 0.00 0.00 0.00 40 1012.3
20260503233532 12 360 9.7 22.5 0.00 0.00 0.00 40 1012.2
20260503233048 13 360 9.7 29.0 0.00 0.00 0.00 39 1012.3
20260503232532 13 360 12.9 29.0 0.00 0.00 0.00 38 1012.2
20260503232032 13 360 16.1 29.0 0.00 0.00 0.00 39 1012.1
20260503231548 13 360 12.9 29.0 0.00 0.00 0.00 39 1012.2
20260503231031 13 360 11.3 27.4 0.00 0.00 0.00 39 1012.2
20260503230533 13 360 14.5 29.0 0.00 0.00 0.00 38 1012.2
20260503230053 13 360 16.1 29.0 0.00 0.00 0.00 39 1012.1
20260503225528 13 360 12.9 27.4 0.00 0.00 0.00 38 1012.2
20260503225029 13 360 11.3 33.8 0.00 0.00 0.00 38 1012.1
20260503224547 13 331 16.1 33.8 0.00 0.00 0.00 38 1012.2
20260503224034 13 360 16.1 32.2 0.00 0.00 0.00 38 1012.1
20260503223531 13 360 4.8 22.5 0.00 0.00 0.00 41 1012.2
20260503223048 13 360 8.0 27.4 0.00 0.00 0.00 40 1012.2
20260503222530 13 360 12.9 27.4 0.00 0.00 0.00 39 1012.1
20260503222030 13 360 11.3 24.1 0.00 0.00 0.00 39 1012.1
20260503221546 13 360 12.9 25.7 0.00 0.00 0.00 38 1012.2
20260503221030 13 360 11.3 33.8 0.00 0.00 0.00 39 1012.2
20260503220531 13 360 17.7 35.4 0.00 0.00 0.00 40 1012.2
20260503220045 13 360 19.3 35.4 0.00 0.00 0.00 39 1012.2
20260503215532 13 360 14.5 27.4 0.00 0.00 0.00 39 1012.2
20260503215033 13 360 9.7 32.2 0.00 0.00 0.00 38 1012.2
20260503214548 13 360 16.1 32.2 0.00 0.00 0.00 39 1012.2
20260503214029 13 360 19.3 32.2 0.00 0.00 0.00 37 1012.2
20260503213530 13 360 12.9 30.6 0.00 0.00 0.00 37 1012.2
20260503213048 13 360 14.5 32.2 0.00 0.00 0.00 37 1012.2
20260503212534 13 360 14.5 32.2 0.00 0.00 0.00 37 1012.1
20260503212030 13 360 16.1 30.6 0.00 0.00 0.00 37 1012.1
20260503211548 13 360 16.1 32.2 0.00 0.00 0.00 37 1012.1
20260503211031 13 360 16.1 32.2 0.00 0.00 0.00 37 1012.1
20260503210530 13 360 11.3 27.4 0.00 0.00 0.00 38 1012.1
20260503210047 13 360 16.1 27.4 0.00 0.00 0.00 37 1012.2
20260503205530 13 360 14.5 27.4 0.00 0.00 0.00 37 1012.0
20260503205030 14 360 16.1 38.6 0.00 0.00 0.00 37 1012.1
20260503204546 14 360 20.9 38.6 0.00 0.00 0.00 38 1012.0
20260503204031 13 360 17.7 35.4 0.00 0.00 0.00 37 1012.1
20260503203534 13 360 16.1 35.4 0.00 0.00 0.00 39 1012.2
20260503203045 14 51 20.9 35.4 0.00 0.00 0.00 35 1012.3
20260503202530 13 360 11.3 25.7 0.00 0.00 0.00 37 1012.2
20260503202034 13 360 17.7 38.6 0.00 0.00 0.00 37 1012.3
20260503201549 13 360 19.3 38.6 0.00 0.00 0.00 38 1012.4
20260503201029 13 360 12.9 33.8 0.00 0.00 0.00 39 1012.3
20260503200531 13 360 19.3 33.8 0.00 0.00 0.00 38 1012.3
20260503200052 13 360 17.7 38.6 0.00 0.00 0.00 36 1012.4
20260503195531 13 105 19.3 38.6 0.00 0.00 0.00 37 1012.4
20260503195029 13 360 12.9 33.8 0.00 0.00 0.00 36 1012.5
20260503194552 13 360 19.3 32.2 0.00 0.00 0.00 36 1012.7
20260503194030 13 344 9.7 33.8 0.00 0.00 0.00 37 1012.7
20260503193534 13 360 19.3 38.6 0.00 0.00 0.00 40 1012.7
20260503193046 13 179 17.7 38.6 0.00 0.00 0.00 38 1012.7
20260503192530 13 360 9.7 32.2 0.00 0.00 0.00 39 1012.8
20260503192032 13 11 9.7 45.1 0.00 0.00 0.00 37 1012.9
20260503191546 13 360 17.7 45.1 0.00 0.00 0.00 36 1012.9
20260503191030 13 360 25.7 45.1 0.00 0.00 0.00 38 1013.0
20260503190529 13 360 22.5 33.8 0.00 0.00 0.00 39 1012.9
20260503190045 13 360 17.7 40.2 0.00 0.00 0.00 36 1013.0
20260503185530 13 16 11.3 41.8 0.00 0.00 0.00 40 1013.1
20260503185031 13 360 22.5 41.8 0.00 0.00 0.00 41 1013.1
20260503184558 12 360 17.7 29.0 0.00 0.00 0.00 39 1013.1
20260503184030 12 360 16.1 29.0 0.00 0.00 0.00 40 1013.2
20260503183531 12 360 12.9 38.6 0.00 0.00 0.00 40 1013.3
20260503183051 12 360 14.5 38.6 0.00 0.00 0.00 40 1013.4
20260503182528 12 360 22.5 38.6 0.00 0.00 0.00 40 1013.4
20260503182031 12 279 4.8 38.6 0.00 0.00 0.00 41 1013.4
20260503181554 12 360 12.9 38.6 0.00 0.00 0.00 39 1013.4
20260503181033 12 360 19.3 56.3 0.00 0.00 0.00 41 1013.4
20260503180532 12 64 29.0 56.3 0.00 0.00 0.00 38 1013.4
20260503180052 12 360 12.9 33.8 0.00 0.00 0.00 41 1013.5
20260503175530 12 360 12.9 22.5 0.00 0.00 0.00 41 1013.6
20260503175032 12 360 11.3 32.2 0.00 0.00 0.00 44 1013.4
20260503174543 11 360 16.1 33.8 0.00 0.00 0.00 42 1013.7
20260503174032 11 360 17.7 33.8 0.00 0.00 0.00 41 1013.6
20260503173530 11 360 12.9 33.8 0.00 0.00 0.00 41 1013.7
20260503173045 11 360 17.7 33.8 0.00 0.00 0.00 41 1013.7
20260503172529 11 360 12.9 35.4 0.00 0.00 0.00 39 1013.8
20260503172032 12 360 16.1 35.4 0.00 0.00 0.00 39 1013.8
20260503171604 12 360 12.9 38.6 0.00 0.00 0.00 40 1013.8
20260503171031 12 281 17.7 38.6 0.00 0.00 0.00 41 1013.7
20260503170531 11 360 19.3 35.4 0.00 0.00 0.00 41 1013.6
20260503150529 8 360 17.7 30.6 0.00 0.00 0.00 49 1014.9
20260503131032 6 283 9.7 25.7 0.00 0.00 0.00 60 1015.5
20260503130530 6 360 12.9 25.7 0.00 0.00 0.00 60 1015.6
20260503110531 2 360 4.8 12.9 0.00 0.00 0.00 72 1015.0
20260503081550 2 360 8.0 19.3 0.00 0.00 0.00 69 1013.7
20260503081030 2 360 8.0 14.5 0.00 0.00 0.00 69 1013.7
20260503080530 2 360 6.4 16.1 0.00 0.00 0.00 69 1013.6
20260503072530 2 360 4.8 16.1 0.00 0.00 0.00 67 1013.3
20260503072029 2 360 8.0 14.5 0.00 0.00 0.00 67 1013.3
20260503071604 2 360 4.8 14.5 0.00 0.00 0.00 67 1013.4
20260503071029 2 360 4.8 12.9 0.00 0.00 0.00 67 1013.4
20260503070529 2 360 4.8 11.3 0.00 0.00 0.00 67 1013.3
20260503055030 3 20 4.8 22.5 0.00 0.08 0.00 63 1013.4
20260503054557 3 360 6.4 22.5 0.00 0.08 0.00 63 1013.4
20260503054029 3 360 6.4 14.5 0.00 0.08 0.00 63 1013.5
20260503053528 3 360 6.4 12.9 0.00 0.08 0.00 63 1013.5
20260503053045 3 360 6.4 12.9 0.00 0.08 0.00 63 1013.5
20260503052529 4 360 6.4 14.5 0.00 0.08 0.00 62 1013.5
20260503052030 4 351 4.8 14.5 0.00 0.08 0.00 62 1013.5
20260503051548 4 360 4.8 9.7 0.00 0.08 0.00 62 1013.6
20260503051028 4 360 1.6 16.1 0.00 0.08 0.00 62 1013.6
20260503050528 4 350 4.8 16.1 0.00 0.08 0.00 62 1013.6
20260503050050 4 360 3.2 9.7 0.00 0.08 0.00 62 1013.6